Regional Weather Roundup
Issued by NWS Kansas City/Pleasant Hill, MO

Home | Current Version | Previous Version | Graphics & Text | Print | Product List | Glossary Off
Versions: 1 2 3 4 5 6 7 8 9 10 11 12 13 14 15 16 17 18 19 20 21 22 23 24 25 26 27 28 29 30 31 32 33 34 35 36 37 38 39 40 41 42 43 44 45 46 47 48 49 50

095
ASUS43 KEAX 301210
RWREAX

WEATHER ROUNDUP FOR EASTERN KANSAS AND NORTHWEST MISSOURI
NATIONAL WEATHER SERVICE KANSAS CITY/PLEASANT HILL MO
700 AM CDT SAT APR 30 2016

KSZ040-057-103>105-MOZ028-029-037-043-301300-
...KANSAS CITY METROPOLITAN AREA...

CITY           SKY/WX    TMP DP  RH WIND       PRES   REMARKS
K.C. INTL      LGT RAIN  56  54  93 E8        29.65S
6HR MIN TEMP:  52; 6HR MAX TEMP:  57; 6HR PCP:  0.44;

K.C. DOWNTOWN  LGT RAIN  59  57  93 CALM      29.65R FOG
6HR MIN TEMP:  54; 6HR MAX TEMP:  59; 6HR PCP:  0.17;

LEES SUMMIT    LGT RAIN  59  57  93 SE10      29.65R
6HR MIN TEMP:  56; 6HR MAX TEMP:  59; 6HR PCP:  0.17;

OLATHE - IXD   CLOUDY    58  58 100 SE10      29.65R
6HR MIN TEMP:  56; 6HR MAX TEMP:  59; 6HR PCP:  0.26;

OLATHE - OJC   LGT RAIN  58  57  97 SE10      29.64S
6HR MIN TEMP:  55; 6HR MAX TEMP:  58; 6HR PCP:  0.13;

LAWRENCE       CLOUDY    57  56  96 E8        29.63S

$$

MOZ001>008-011>017-020>025-030>033-038>040-044>046-053-054-301300-
...NORTHERN AND CENTRAL MISSOURI...

CITY           SKY/WX    TMP DP  RH WIND       PRES   REMARKS
ST. JOSEPH     LGT RAIN  52  50  93 E8        29.66R
6HR MIN TEMP:  50; 6HR MAX TEMP:  52; 6HR PCP:  0.36;

MOSBY          CLOUDY    55  55 100 SE8       29.66R THUNDER FOG
WARRENSBURG    CLOUDY    59  55  88 E12       29.65S
WHITEMAN AFB   CLOUDY    58  58 100 SE9       29.66S
6HR MIN TEMP:  56; 6HR MAX TEMP:  58; 6HR PCP:  0.05;

CLINTON        CLOUDY    59  59 100 SE7       29.67R
SEDALIA        CLOUDY    60  57  89 SE12      29.69S
6HR MIN TEMP:  58; 6HR MAX TEMP:  60; 6HR PCP:  0.08;

WARSAW         NOT AVBL
CHILLICOTHE      N/A     53  51  93 E6        29.72F
6HR MIN TEMP:  52; 6HR MAX TEMP:  53; 6HR PCP:  0.12;

KIRKSVILLE     CLOUDY    50  48  93 E15G22    29.75F FOG
6HR MIN TEMP:  48; 6HR MAX TEMP:  50; 6HR PCP:  0.12;


$$

MOZ041-047>049-056>058-063>065-088>090-097-301300-
...EASTERN AND SOUTHERN MISSOURI...

CITY           SKY/WX    TMP DP  RH WIND       PRES   REMARKS
ST. LOUIS INTL LGT RAIN  59  56  89 E16       29.80F FOG
6HR MIN TEMP:  59; 6HR MAX TEMP:  59; 6HR PCP:  0.61;

SPIRIT OF STL  LGT RAIN  59  57  93 E14G20    29.74F
COLUMBIA       CLOUDY    58  57  97 E13       29.71R
JEFFERSON CITY CLOUDY    59  57  93 E10       29.71R
ROLLA          CLOUDY    59  57  93 E6        29.69R
OSAGE BEACH    CLOUDY    59  52  77 NE5       29.71R
SPRINGFIELD    CLOUDY    63  60  90 S12       29.68R
BRANSON        CLOUDY    63  63 100 S6        29.71R
JOPLIN         CLOUDY    63  61  93 S12       29.67R
WEST PLAINS    LGT RAIN  61  58  90 SE8       29.74R

$$

IAZ060-094-KSZ022-034>040-054-083-096-NEZ052-066-093-301300-
...KANSAS...SOUTHEAST NEBRASKA AND IOWA...

CITY           SKY/WX    TMP DP  RH WIND       PRES   REMARKS
TOPEKA         TSTM      56  55  97 W6        29.63R VSB 3/4
6HR MIN TEMP:  53; 6HR MAX TEMP:  56; 6HR PCP:  0.30;

MANHATTAN      CLOUDY    52  49  89 W6        29.64R
EMPORIA        CLOUDY    52  51  97 W12       29.64R
CHANUTE        CLOUDY    61  58  90 W8        29.65R
WICHITA        CLOUDY    50  47  89 W13       29.71R
OMAHA          HVY RAIN  46  43  89 VRB7      29.73F FOG
LINCOLN        LGT RAIN  46  44  93 NE12      29.72S FOG
FALLS CITY     RAIN      50  49  96 E13       29.65R FOG
LAMONI         LGT RAIN  46  45  96 E10       29.75R FOG
DES MOINES     LGT RAIN  46  42  86 E20G28    29.80F FOG

$$





USA.gov is the U.S. government's official web portal to all federal, state and local government web resources and services.